EDT,Max TemperatureF,Mean TemperatureF,Min TemperatureF,Max Dew PointF,MeanDew PointF,Min DewpointF,Max Humidity, Mean Humidity, Min Humidity, Max Sea Level PressureIn, Mean Sea Level PressureIn, Min Sea Level PressureIn, Max VisibilityMiles, Mean VisibilityMiles, Min VisibilityMiles, Max Wind SpeedMPH, Mean Wind SpeedMPH, Max Gust SpeedMPH,PrecipitationIn, CloudCover, Events, WindDirDegrees
2012-5-1,76,68,60,62,58,55,97,74,50,30.18,30.08,29.97,10,9,2,22,7,29,0.46,6,Rain,234
2012-5-2,82,71,59,61,57,55,93,68,42,30.16,30.08,30.01,10,10,7,16,6,23,0.01,3,,284
2012-5-3,86,73,59,61,55,49,90,62,34,30.22,30.08,30.02,10,10,1,17,3,24,0.00,1,,192
2012-5-4,74,67,59,61,59,53,97,81,64,30.17,30.05,29.95,10,10,5,15,5,22,0.25,5,Rain,256
2012-5-5,69,65,60,61,60,57,97,88,78,30.06,29.97,29.87,10,7,1,16,5,22,0.89,8,Rain,302
2012-5-6,79,68,57,61,59,55,100,74,48,30.12,30.02,29.95,10,6,0,14,3,18,0.00,5,Fog,4
2012-5-7,77,69,60,60,58,55,90,72,54,30.04,29.93,29.87,10,10,9,16,8,22,0.04,3,Rain,157
2012-5-8,72,66,59,61,58,54,93,80,66,29.94,29.87,29.80,10,10,5,17,8,26,0.03,7,Rain,245
2012-5-9,60,54,47,56,52,45,93,80,67,29.91,29.86,29.75,10,5,0,20,4,29,0.25,6,Fog-Rain,287
2012-5-10,61,52,42,46,41,35,93,68,42,30.04,29.89,29.80,10,9,2,17,7,25,0.00,4,,317
2012-5-11,67,52,36,39,32,24,85,55,24,30.25,30.17,30.07,10,10,10,12,3,16,0.00,0,,359
2012-5-12,73,58,42,52,43,35,72,56,40,30.30,30.25,30.20,10,10,10,16,5,21,0.00,1,,184
2012-5-13,70,64,57,55,53,51,93,74,55,30.19,30.13,30.06,10,9,5,14,6,18,0.08,6,Rain,142
2012-5-14,67,62,56,59,56,54,100,87,73,30.09,30.01,29.94,10,7,2,12,3,16,0.90,8,Rain,54
2012-5-15,68,61,54,57,56,52,100,82,63,30.07,30.01,29.96,10,7,0,9,3,12,0.00,8,Fog,352
2012-5-16,76,63,50,56,50,46,96,67,38,30.05,30.00,29.93,10,6,0,13,4,29,0.00,1,Fog,267
2012-5-17,74,62,50,58,53,48,100,77,53,30.12,30.04,29.97,10,7,0,14,5,17,0.00,2,Fog,18
2012-5-18,77,67,56,56,54,51,86,65,43,30.11,30.07,30.03,10,10,8,12,5,14,0.00,1,,127
2012-5-19,76,65,54,58,50,41,78,60,41,30.16,30.12,30.07,10,10,10,10,4,14,T,1,Rain,105
2012-5-20,79,66,53,55,52,47,93,66,39,30.18,30.12,30.04,10,10,10,13,4,17,0.00,1,,52
2012-5-21,78,68,58,61,55,50,90,65,40,30.03,29.96,29.88,10,10,8,16,4,21,0.06,5,Rain,178
2012-5-22,73,64,54,61,58,54,93,81,68,29.98,29.91,29.87,10,6,2,12,4,18,0.25,6,Rain,346
2012-5-23,72,65,58,61,58,55,93,77,61,29.98,29.91,29.86,10,6,2,10,3,18,0.32,7,Rain,40
2012-5-24,74,66,58,62,59,56,93,77,61,30.04,29.98,29.92,10,10,8,13,7,21,0.01,2,Rain,149
2012-5-25,83,73,62,60,58,55,93,68,42,30.18,30.09,30.03,10,9,5,13,3,16,0.00,1,,162
2012-5-26,85,72,59,65,61,56,84,66,47,30.18,30.13,30.09,10,10,8,12,3,21,0.00,1,,4
2012-5-27,84,75,65,66,63,60,87,66,44,30.13,30.08,30.03,10,9,6,10,5,14,0.00,1,,150
2012-5-28,82,72,63,64,62,59,87,69,51,30.14,30.01,29.94,10,10,10,10,5,14,0.00,1,,166
2012-5-29,83,74,64,65,63,61,93,74,54,29.96,29.90,29.83,10,9,2,13,6,20,0.29,4,Rain,228
2012-5-30,79,71,62,63,59,47,100,66,32,29.94,29.87,29.79,10,6,0,16,6,23,0.00,5,Fog,305
2012-5-31,79,67,55,60,52,46,86,59,32,29.92,29.85,29.80,10,10,10,28,5,35,0.06,2,Rain,226